SL-8 R/B

Satellite information

Favourite Embed

Satellite Type and Status

ROCKET BODYIN ORBIT

Key statistics

Satellite SL-8 R/B at a glance.

Uptime

11006

Days in orbit

Revolutions

≈ 13.7

Per day

Orbit

LEO

Low Earth Orbit

Inclination

82.9

Latest

Satellite identification and parameters

Extended collection of information and parameters for SL-8 R/B.

Object identification

Identified? True

Debris? False

Object name: SL-8 R/B

International designator: 1995-012B

Object number (NORAD): 23527

Object ID (CCSDS): 23527

Country: COMMONWEALTH OF INDEPENDENT STATES (CIS)

Current information (Y/N): Y

RCS size: LARGE

Orbital parameters

Period: 104.811 minutes

Inclination: 82.9435 deg

SMA: 7363.751 km

Apoapsis: 999.705 km

Periapsis: 971.528 km

RAAN: 61.7585 deg

Eccentricy: 0.0019132

Argument of periapsis: 213.5882 deg

Mean anomaly: 146.4062 deg

Mean motion: 13.7389677 rev/day

Mean motion (dot): 0.00000049 rev/day2

B* drag term: 0.000036363 1/REarth

Two-line elements (TLE)

Creation date: May 8, 2025, 3:01 a.m.

Reference frame: TEME

Reference center: EARTH

Epoch: May 7, 2025, 8:24 p.m. UTC

TLE line 0: 0 SL-8 R/B

TLE line 1: 1 23527U 95012B 25127.85009230 .00000049 00000-0 36363-4 0 9998

TLE line 2: 2 23527 82.9435 61.7585 0019132 213.5882 146.4062 13.73896770509940

Live tracking on map

Real-time ground track for satellite SL-8 R/B.

In-orbit conjunctions

A list of the most updated potential collisions computed for object SL-8 R/B.

Target Orbit TCA Probability of collision Miss distance Type
FENGYUN 1C DEB SSO 2024-06-13 10:02:48 0.0001481589 179.0 (m) DEBRIS

Associated space launch

There is no information available about the launch of this satellite, yet. Check back as we update our databases every day.

Latest news about this satellite

There are no fresh news available about this satellite. Check back as we update our databases every day.


Newsletter sign-up

Weekly statistics, charts and insights to help you stay on top of the space industry.